period_start,C,m1,H,J0,J1,J2,J3,J4,J5,JA,JB,JC,JD,JJ,JK,JN,#
2017-01-22 00:01:00,0.42,16.04,0.00,17.46,20.24,24.31,14.78,54.42,1011.74,2053.00,874.59,1043.18,1159.59,599.87,604.35,26.97,0000 0000 0000 0000 000000
2017-01-22 00:06:01,0.37,16.06,0.00,17.48,20.28,24.33,14.85,54.43,1011.78,2052.99,873.40,1042.29,1158.52,600.12,604.61,27.02,0000 0000 0000 0000 000000
2017-01-22 00:11:02,0.37,16.07,0.00,17.52,20.33,24.39,14.82,54.50,1012.13,2052.98,872.20,1041.15,1157.41,599.97,604.55,27.07,0000 0000 0000 0000 000000
2017-01-22 00:16:04,0.39,16.09,0.00,17.55,20.37,24.43,14.86,54.47,1012.21,2052.84,870.83,1040.32,1156.54,599.78,604.41,27.12,0000 0000 0000 0000 000000
2017-01-22 00:21:05,0.32,16.11,0.00,17.57,20.41,24.45,14.82,54.39,1012.21,2052.26,869.46,1039.39,1155.45,600.06,604.31,27.17,0000 0000 0000 0000 000000
2017-01-22 00:26:06,0.47,16.13,0.00,17.60,20.45,24.50,14.86,54.67,1011.85,2052.03,867.79,1038.20,1154.21,600.09,604.30,27.22,0000 0000 0000 0000 000000
2017-01-22 00:31:07,0.64,16.16,0.00,17.62,20.49,24.55,14.85,54.53,1011.75,2052.00,866.18,1036.79,1152.72,600.33,604.48,27.27,0000 0000 0000 0000 000000
2017-01-22 00:36:09,0.62,16.20,0.00,17.64,20.53,24.59,14.85,54.81,1011.72,2052.00,863.62,1035.46,1151.25,599.91,604.00,27.32,0000 0000 0000 0000 000000
2017-01-22 00:41:10,0.35,16.22,0.00,17.67,20.57,24.63,14.86,54.85,1011.60,2052.00,862.45,1034.52,1150.17,600.09,604.17,27.37,0000 0000 0000 0000 000000
2017-01-22 00:46:11,0.52,16.24,0.00,17.69,20.61,24.67,14.79,54.72,1011.72,2051.98,860.79,1033.60,1148.94,599.92,603.96,27.42,0000 0000 0000 0000 000000
2017-01-22 00:51:12,0.32,16.26,0.00,17.72,20.64,24.69,14.79,54.51,1012.21,2051.56,859.12,1032.52,1147.79,599.44,603.74,27.47,0000 0000 0000 0000 000000
2017-01-22 00:56:13,0.66,16.29,0.00,17.75,20.68,24.71,14.80,54.42,1012.22,2051.15,857.27,1030.82,1146.15,599.91,604.12,27.52,0000 0000 0000 0000 000000
2017-01-22 01:01:15,0.42,16.31,0.87,17.78,20.71,24.74,14.88,54.44,1012.22,2051.01,855.86,1029.52,1144.69,599.95,604.02,27.57,0000 0000 0000 0000 000000
2017-01-22 01:06:16,0.47,16.33,1.00,17.80,20.75,24.78,14.87,54.42,1012.30,2051.00,854.56,1028.48,1143.56,600.05,604.16,27.62,0000 0000 0000 0000 000000
2017-01-22 01:11:17,0.43,16.36,1.00,17.84,20.78,24.81,14.82,54.41,1012.58,2050.99,853.15,1027.42,1142.33,600.02,604.18,27.67,0000 0000 0000 0000 000000
2017-01-22 01:16:19,0.44,16.38,1.00,17.87,20.82,24.85,14.81,54.45,1012.23,2050.95,851.79,1026.36,1141.00,599.67,603.66,27.72,0000 0000 0000 0000 000000
2017-01-22 01:21:20,0.41,16.40,1.00,17.90,20.85,24.87,14.86,54.48,1012.23,2050.71,850.38,1025.23,1139.77,600.20,604.06,27.77,0000 0000 0000 0000 000000
2017-01-22 01:26:21,0.40,16.42,1.00,17.93,20.88,24.90,14.91,54.43,1012.22,2050.20,848.83,1024.11,1138.48,600.33,604.17,27.82,0000 0000 0000 0000 000000
2017-01-22 01:31:22,0.37,16.44,0.13,17.95,20.92,24.93,14.78,54.71,1012.25,2050.03,847.71,1023.12,1137.30,599.69,603.44,27.87,0000 0000 0000 0000 000000
2017-01-22 01:36:23,0.40,16.46,0.00,17.98,20.95,24.97,14.82,54.64,1012.29,2050.00,846.45,1022.34,1136.15,599.94,603.71,27.92,0000 0000 0000 0000 000000
2017-01-22 01:41:25,0.46,16.48,0.00,18.00,20.98,24.99,14.81,54.51,1012.63,2050.00,845.02,1021.08,1134.80,599.79,603.80,27.97,0000 0000 0000 0000 000000
2017-01-22 01:46:26,0.45,16.51,0.00,18.04,21.02,25.04,14.87,54.60,1012.65,2049.98,843.75,1020.04,1133.75,599.84,603.61,28.02,0000 0000 0000 0000 000000
2017-01-22 01:51:28,0.45,16.53,0.00,18.07,21.05,25.06,14.81,54.63,1012.68,2049.97,842.40,1019.05,1132.59,600.07,603.85,28.07,0000 0000 0000 0000 000000
2017-01-22 01:56:29,0.36,16.55,0.00,18.11,21.08,25.09,14.85,54.63,1012.73,2049.75,840.99,1018.11,1131.51,600.25,603.90,28.12,0000 0000 0000 0000 000000
2017-01-22 02:01:30,0.33,16.57,0.00,18.13,21.12,25.12,14.80,54.37,1013.11,2049.23,839.76,1017.13,1130.32,600.17,603.92,28.17,0000 0000 0000 0000 000000
2017-01-22 02:06:31,0.40,16.58,0.00,18.15,21.15,25.16,14.85,54.38,1013.19,2049.02,838.58,1016.17,1129.20,600.32,604.23,28.22,0000 0000 0000 0000 000000
2017-01-22 02:11:32,0.41,16.61,0.00,18.19,21.18,25.19,14.75,54.62,1012.88,2049.01,837.30,1015.25,1128.18,599.61,603.28,28.27,0000 0000 0000 0000 000000
2017-01-22 02:16:33,0.37,16.63,0.00,18.21,21.21,25.22,14.83,54.59,1012.96,2049.00,836.08,1014.33,1127.06,600.12,603.75,28.32,0000 0000 0000 0000 000000
2017-01-22 02:21:34,0.38,16.65,0.00,18.26,21.25,25.24,14.84,54.60,1012.99,2048.99,835.03,1013.36,1126.02,600.01,603.49,28.37,0000 0000 0000 0000 000000
2017-01-22 02:26:36,0.36,16.66,0.00,18.29,21.28,25.27,14.81,54.57,1012.95,2048.97,833.95,1012.55,1125.08,599.88,603.29,28.42,0000 0000 0000 0000 000000
2017-01-22 02:31:38,0.36,16.68,0.00,18.32,21.31,25.32,14.88,54.86,1012.73,2048.79,832.76,1011.77,1124.14,600.21,603.43,28.47,0000 0000 0000 0000 000000
2017-01-22 02:36:39,0.33,16.70,0.00,18.36,21.34,25.35,14.80,54.88,1012.71,2048.29,831.45,1010.86,1123.09,600.00,603.30,28.52,0000 0000 0000 0000 000000
2017-01-22 02:41:40,0.30,16.71,0.00,18.37,21.38,25.36,14.82,54.82,1012.71,2048.05,830.42,1010.03,1122.12,599.98,603.23,28.57,0000 0000 0000 0000 000000
2017-01-22 02:46:41,0.37,16.73,0.00,18.41,21.41,25.40,14.79,54.71,1012.71,2048.01,829.33,1009.28,1121.26,599.54,602.87,28.62,0000 0000 0000 0000 000000
2017-01-22 02:51:43,0.38,16.75,0.00,18.43,21.45,25.45,14.83,54.81,1012.71,2047.99,828.08,1008.27,1120.13,599.78,602.85,28.67,0000 0000 0000 0000 000000
2017-01-22 02:56:44,0.34,16.77,0.00,18.46,21.48,25.47,14.84,54.83,1012.71,2047.97,827.01,1007.72,1119.22,600.03,603.05,28.72,0000 0000 0000 0000 000000
2017-01-22 03:01:45,0.41,16.79,0.00,18.47,21.52,25.50,14.75,54.96,1012.71,2047.93,825.77,1006.78,1118.28,600.01,602.90,28.78,0000 0000 0000 0000 000000
2017-01-22 03:06:46,0.32,16.81,0.00,18.50,21.55,25.55,14.81,54.98,1012.68,2047.46,824.58,1005.87,1117.18,600.10,603.05,28.83,0000 0000 0000 0000 000000
2017-01-22 03:11:48,0.33,16.82,0.00,18.52,21.58,25.56,14.88,55.11,1012.49,2047.11,823.35,1005.03,1116.21,600.29,603.06,28.88,0000 0000 0000 0000 000000
2017-01-22 03:16:49,0.43,16.85,0.00,18.52,21.62,25.57,14.82,55.10,1012.55,2047.04,821.99,1004.09,1115.15,600.27,603.02,28.93,0000 0000 0000 0000 000000
2017-01-22 03:21:51,0.55,16.87,0.00,18.55,21.65,25.62,14.83,55.10,1012.59,2047.00,820.41,1002.92,1113.80,600.00,602.78,28.98,0000 0000 0000 0000 000000
2017-01-22 03:26:52,0.51,16.90,0.00,18.56,21.68,25.65,14.76,54.88,1012.86,2047.00,819.02,1001.73,1112.29,599.96,602.93,29.03,0000 0000 0000 0000 000000
2017-01-22 03:31:53,0.39,16.92,0.00,18.57,21.71,25.65,14.76,54.81,1013.16,2047.00,817.70,1000.91,1111.37,599.61,602.65,29.08,0000 0000 0000 0000 000000
2017-01-22 03:36:54,0.58,16.94,0.00,18.58,21.74,25.71,14.86,55.03,1013.11,2047.00,816.48,999.59,1110.06,600.03,603.10,29.13,0000 0000 0000 0000 000000
2017-01-22 03:41:55,0.42,16.97,0.00,18.60,21.77,25.71,14.83,54.98,1013.16,2046.99,815.24,998.37,1108.67,599.99,602.87,29.18,0000 0000 0000 0000 000000
2017-01-22 03:46:56,0.37,16.99,0.00,18.62,21.79,25.73,14.79,55.10,1013.12,2046.98,814.07,997.58,1107.72,599.71,602.61,29.23,0000 0000 0000 0000 000000
2017-01-22 03:51:58,0.33,17.00,0.00,18.65,21.82,25.74,14.83,54.67,1013.21,2046.95,813.09,996.77,1106.75,600.20,603.13,29.28,0000 0000 0000 0000 000000
2017-01-22 03:56:59,0.27,17.02,0.00,18.68,21.84,25.79,14.81,54.71,1013.20,2046.76,812.06,996.00,1105.84,600.20,603.10,29.33,0000 0000 0000 0000 000000
2017-01-22 04:02:00,0.30,17.04,0.00,18.70,21.87,25.79,14.82,54.65,1013.19,2046.22,810.92,995.09,1104.86,599.89,602.73,29.38,0000 0000 0000 0000 000000
2017-01-22 04:07:02,0.35,17.05,0.00,18.71,21.89,25.80,14.80,54.76,1013.19,2046.06,809.93,994.18,1103.96,599.97,602.73,29.43,0000 0000 0000 0000 000000
2017-01-22 04:12:03,0.42,17.07,0.00,18.72,21.92,25.82,14.76,54.73,1013.19,2046.02,808.80,993.49,1103.05,599.77,602.49,29.48,0000 0000 0000 0000 000000
2017-01-22 04:17:04,0.40,17.09,0.00,18.73,21.94,25.88,14.84,54.93,1013.21,2046.00,807.60,992.70,1102.12,600.22,602.92,29.53,0000 0000 0000 0000 000000
2017-01-22 04:22:05,0.36,17.12,0.00,18.74,21.96,25.88,14.80,54.72,1013.49,2046.00,806.09,991.99,1101.09,599.92,602.74,29.58,0000 0000 0000 0000 000000
2017-01-22 04:27:07,0.39,17.13,0.00,18.77,21.98,25.89,14.80,54.70,1013.63,2046.00,805.18,991.15,1100.15,600.25,603.14,29.63,0000 0000 0000 0000 000000
2017-01-22 04:32:08,0.40,17.15,0.00,18.77,22.01,25.92,14.85,54.73,1013.66,2045.99,804.07,990.15,1099.15,599.71,602.65,29.68,0000 0000 0000 0000 000000
2017-01-22 04:37:09,0.37,17.17,0.00,18.80,22.03,25.93,14.80,54.59,1013.31,2045.94,802.99,989.32,1098.20,599.73,602.18,29.73,0000 0000 0000 0000 000000
2017-01-22 04:42:10,0.37,17.19,0.00,18.82,22.05,25.93,14.75,54.63,1013.27,2045.89,801.93,988.57,1097.27,599.89,602.57,29.78,0000 0000 0000 0000 000000
2017-01-22 04:47:11,0.25,17.20,0.00,18.81,22.07,25.97,14.84,54.48,1013.68,2045.63,800.91,987.92,1096.47,600.22,603.00,29.83,0000 0000 0000 0000 000000
2017-01-22 04:52:12,0.35,17.22,0.00,18.84,22.09,25.95,14.76,54.66,1013.68,2045.24,799.78,987.04,1095.60,599.84,602.78,29.88,0000 0000 0000 0000 000000
2017-01-22 04:57:13,0.42,17.24,0.00,18.88,22.12,26.01,14.81,54.73,1013.68,2045.03,798.40,986.13,1094.69,600.26,603.00,29.93,0000 0000 0000 0000 000000
2017-01-22 05:02:15,0.37,17.26,0.00,18.89,22.14,26.03,14.83,54.52,1013.64,2045.01,797.46,985.33,1093.70,600.11,602.65,29.98,0000 0000 0000 0000 000000
2017-01-22 05:07:16,0.36,17.28,0.00,18.90,22.16,26.08,14.82,54.71,1013.31,2045.00,796.36,984.52,1092.86,600.04,602.45,30.03,0000 0000 0000 0000 000000
2017-01-22 05:12:17,0.28,17.29,0.00,18.93,22.18,26.06,14.74,54.63,1013.22,2045.00,795.50,984.00,1092.05,599.84,602.17,30.08,0000 0000 0000 0000 000000
2017-01-22 05:17:18,0.35,17.31,0.00,18.94,22.19,26.11,14.78,54.82,1013.20,2045.00,794.49,983.22,1091.18,599.71,601.97,30.13,0000 0000 0000 0000 000000
2017-01-22 05:22:20,0.36,17.33,0.00,18.94,22.22,26.11,14.83,54.78,1013.35,2044.99,793.53,982.56,1090.42,599.89,602.16,30.18,0000 0000 0000 0000 000000
2017-01-22 05:27:21,0.29,17.34,0.00,18.94,22.23,26.13,14.82,54.67,1013.68,2044.98,792.42,981.91,1089.59,600.02,602.62,30.23,0000 0000 0000 0000 000000
2017-01-22 05:32:22,0.36,17.36,0.00,18.97,22.25,26.16,14.87,54.67,1013.69,2044.96,791.53,981.07,1088.79,600.65,603.20,30.28,0000 0000 0000 0000 000000
2017-01-22 05:37:23,0.37,17.38,0.00,18.98,22.27,26.13,14.79,54.65,1013.70,2044.85,790.37,980.27,1087.85,599.90,602.41,30.33,0000 0000 0000 0000 000000
2017-01-22 05:42:24,0.24,17.40,0.00,19.00,22.29,26.18,14.84,54.72,1013.70,2044.44,789.22,979.60,1087.03,599.78,602.27,30.38,0000 0000 0000 0000 000000
2017-01-22 05:47:26,0.32,17.41,0.00,19.02,22.31,26.19,14.76,54.94,1013.71,2044.13,788.06,978.80,1086.20,599.80,602.16,30.43,0000 0000 0000 0000 000000
2017-01-22 05:52:27,0.42,17.43,0.00,19.03,22.32,26.17,14.83,54.93,1013.70,2044.05,786.87,977.98,1085.32,600.30,602.71,30.48,0000 0000 0000 0000 000000
2017-01-22 05:57:28,0.42,17.45,0.00,19.04,22.34,26.19,14.82,54.92,1013.61,2044.02,785.74,977.10,1084.33,600.36,602.61,30.53,0000 0000 0000 0000 000000
2017-01-22 06:02:30,0.46,17.47,0.00,19.04,22.36,26.18,14.79,55.04,1013.45,2044.01,784.31,976.29,1083.59,599.97,602.15,30.58,0000 0000 0000 0000 000000
2017-01-22 06:07:31,0.43,17.50,0.00,19.03,22.37,26.29,14.81,55.03,1013.21,2044.01,782.83,975.57,1082.59,600.13,602.17,30.63,0000 0000 0000 0000 000000
2017-01-22 06:12:33,0.31,17.51,0.00,19.03,22.39,26.25,14.77,55.23,1013.31,2044.00,781.87,974.75,1081.73,599.97,602.23,30.68,0000 0000 0000 0000 000000
2017-01-22 06:17:34,0.45,17.53,0.00,19.02,22.39,26.23,14.82,55.16,1013.67,2044.00,780.75,973.83,1080.68,599.91,602.31,30.73,0000 0000 0000 0000 000000
2017-01-22 06:22:35,0.45,17.56,0.00,19.02,22.42,26.25,14.81,55.00,1013.68,2044.00,779.48,972.98,1079.61,600.31,602.86,30.78,0000 0000 0000 0000 000000
2017-01-22 06:27:37,0.37,17.58,0.00,19.01,22.42,26.20,14.80,55.06,1013.68,2044.00,778.51,972.14,1078.71,599.75,602.19,30.83,0000 0000 0000 0000 000000
2017-01-22 06:32:38,0.39,17.60,0.00,19.01,22.43,26.16,14.81,54.98,1013.68,2043.99,777.41,971.40,1077.81,600.19,602.60,30.88,0000 0000 0000 0000 000000
2017-01-22 06:37:39,0.31,17.62,0.00,18.99,22.44,26.20,14.83,54.92,1013.69,2043.98,776.51,970.76,1076.91,599.92,602.44,30.93,0000 0000 0000 0000 000000
2017-01-22 06:42:40,0.37,17.63,0.00,18.99,22.44,26.16,14.74,54.82,1013.70,2043.98,775.32,969.97,1076.02,599.42,602.09,30.98,0000 0000 0000 0000 000000
2017-01-22 06:47:42,0.38,17.65,0.00,18.98,22.44,26.15,14.82,54.86,1013.69,2043.97,774.40,969.15,1075.14,599.92,602.44,31.03,0000 0000 0000 0000 000000
2017-01-22 06:52:43,0.34,17.67,0.00,18.99,22.45,26.15,14.80,54.93,1013.56,2043.98,773.48,968.68,1074.40,600.01,602.47,31.08,0000 0000 0000 0000 000000
2017-01-22 06:57:44,0.31,17.69,0.00,18.99,22.46,26.12,14.77,54.95,1013.13,2043.96,772.55,968.01,1073.74,599.94,602.04,31.13,0000 0000 0000 0000 000000
2017-01-22 07:02:45,0.35,17.70,0.00,18.97,22.47,26.15,14.73,55.14,1012.93,2043.95,771.48,967.29,1072.96,600.25,602.35,31.18,0000 0000 0000 0000 000000
2017-01-22 07:07:46,0.35,17.72,0.00,18.96,22.47,26.18,14.83,55.22,1013.19,2043.92,770.41,966.68,1072.10,600.21,602.44,31.23,0000 0000 0000 0000 000000
2017-01-22 07:12:48,0.32,17.74,0.00,18.95,22.47,26.13,14.87,55.08,1013.20,2043.95,769.48,965.96,1071.40,600.40,602.60,31.28,0000 0000 0000 0000 000000
2017-01-22 07:17:49,0.40,17.76,0.00,18.94,22.47,26.15,14.78,55.26,1013.20,2043.88,768.28,965.11,1070.57,600.09,602.28,31.33,0000 0000 0000 0000 000000
2017-01-22 07:22:50,0.38,17.78,0.00,18.92,22.47,26.16,14.78,55.29,1013.21,2043.92,767.22,964.56,1069.74,599.45,601.89,31.38,0000 0000 0000 0000 000000
2017-01-22 07:27:51,0.29,17.80,0.00,18.89,22.47,26.12,14.82,55.09,1013.50,2043.91,766.25,963.93,1068.94,599.96,602.55,31.43,0000 0000 0000 0000 000000
2017-01-22 07:32:53,0.39,17.81,0.00,18.89,22.47,26.10,14.84,55.15,1013.69,2043.95,765.19,963.11,1068.09,600.14,602.76,31.48,0000 0000 0000 0000 000000
2017-01-22 07:37:54,0.39,17.83,0.00,18.89,22.46,26.14,14.83,55.14,1013.69,2043.92,764.22,962.44,1067.33,600.08,602.93,31.53,0000 0000 0000 0000 000000
2017-01-22 07:42:56,0.35,17.85,0.00,18.88,22.45,26.11,14.88,55.07,1013.68,2043.94,763.31,961.74,1066.54,600.62,603.23,31.58,0000 0000 0000 0000 000000
2017-01-22 07:47:57,0.36,17.87,0.00,18.88,22.45,26.10,14.78,55.09,1013.69,2043.93,762.18,960.96,1065.74,599.99,602.69,31.63,0000 0000 0000 0000 000000
2017-01-22 07:52:59,0.36,17.89,0.00,18.88,22.44,26.02,14.84,55.02,1013.69,2043.96,761.21,960.10,1064.88,600.13,602.75,31.68,0000 0000 0000 0000 000000
2017-01-22 07:58:00,0.34,17.90,0.00,18.89,22.44,26.05,14.80,55.10,1013.69,2043.97,760.20,959.66,1064.04,600.25,602.97,31.74,0000 0000 0000 0000 000000
2017-01-22 08:03:01,0.35,17.92,0.00,18.91,22.44,26.05,14.82,55.15,1013.69,2043.98,759.26,959.01,1063.16,599.88,602.49,31.79,0000 0000 0000 0000 000000
2017-01-22 08:08:03,0.37,17.94,0.00,18.90,22.44,26.10,14.84,55.17,1013.69,2043.96,758.28,958.40,1062.38,600.08,602.79,31.84,0000 0000 0000 0000 000000
2017-01-22 08:13:04,0.25,17.95,0.00,18.89,22.44,26.05,14.85,55.01,1013.69,2043.99,757.54,957.94,1061.69,600.26,602.86,31.89,0000 0000 0000 0000 000000
2017-01-22 08:18:05,0.36,17.97,0.00,18.88,22.44,26.03,14.84,55.11,1013.69,2043.96,756.56,957.14,1060.95,600.03,602.75,31.94,0000 0000 0000 0000 000000
2017-01-22 08:23:07,0.30,17.98,0.00,18.89,22.43,26.05,14.85,55.12,1013.72,2043.96,755.78,956.54,1060.10,600.13,602.82,31.99,0000 0000 0000 0000 000000
2017-01-22 08:28:08,0.28,18.00,0.00,18.89,22.42,26.01,14.78,55.12,1013.75,2043.98,754.87,956.00,1059.50,599.78,602.40,32.04,0000 0000 0000 0000 000000
2017-01-22 08:33:10,0.28,18.02,0.00,18.91,22.42,25.99,14.77,55.01,1013.69,2043.96,754.00,955.39,1058.93,600.03,602.69,32.09,0000 0000 0000 0000 000000
2017-01-22 08:38:11,0.30,18.04,0.00,18.92,22.42,26.03,14.85,55.21,1013.69,2043.95,753.11,954.94,1058.09,600.23,602.85,32.14,0000 0000 0000 0000 000000
2017-01-22 08:43:13,0.35,18.05,0.00,18.90,22.42,26.04,14.79,55.17,1013.69,2043.95,752.25,954.14,1057.57,600.06,602.74,32.19,0000 0000 0000 0000 000000
2017-01-22 08:48:15,0.28,18.06,0.00,18.92,22.42,26.06,14.83,55.18,1013.69,2043.94,751.49,953.77,1056.90,600.41,602.94,32.24,0000 0000 0000 0000 000000
2017-01-22 08:53:16,0.36,18.08,0.00,18.94,22.42,26.06,14.84,55.14,1013.69,2043.94,750.63,953.04,1056.09,599.94,602.55,32.29,0000 0000 0000 0000 000000
2017-01-22 08:58:17,0.29,18.09,0.00,18.95,22.42,26.07,14.72,55.17,1013.69,2043.96,749.73,952.61,1055.41,599.54,602.17,32.34,0000 0000 0000 0000 000000
2017-01-22 09:03:19,0.23,18.11,0.00,18.97,22.42,26.09,14.79,55.17,1013.69,2043.97,748.88,952.00,1054.83,600.23,602.83,32.39,0000 0000 0000 0000 000000
2017-01-22 09:08:20,0.33,18.13,0.00,18.97,22.43,26.09,14.79,55.21,1013.69,2043.89,747.92,951.37,1054.03,600.05,602.66,32.44,0000 0000 0000 0000 000000
2017-01-22 09:13:21,0.31,18.14,0.00,18.98,22.44,26.13,14.86,55.25,1013.63,2043.77,746.95,950.80,1053.19,600.13,602.63,32.49,0000 0000 0000 0000 000000
2017-01-22 09:18:22,0.37,18.16,0.00,19.00,22.44,26.13,14.81,55.17,1013.58,2043.83,745.99,950.03,1052.56,600.14,602.69,32.54,0000 0000 0000 0000 000000
2017-01-22 09:23:24,0.34,18.18,0.00,19.01,22.45,26.13,14.82,55.09,1013.69,2043.74,745.06,949.34,1051.81,599.93,602.45,32.59,0000 0000 0000 0000 000000
2017-01-22 09:28:25,0.21,18.19,0.00,19.02,22.46,26.13,14.81,55.08,1013.70,2043.37,744.14,948.97,1051.06,600.08,602.37,32.64,0000 0000 0000 0000 000000
2017-01-22 09:33:27,0.40,18.20,0.00,19.00,22.47,26.18,14.85,55.01,1013.61,2043.44,743.31,948.24,1050.45,600.30,602.71,32.69,0000 0000 0000 0000 000000
2017-01-22 09:38:28,0.21,18.22,0.00,19.01,22.47,26.20,14.83,55.08,1013.37,2043.28,742.50,947.84,1049.82,600.18,602.39,32.74,0000 0000 0000 0000 000000
2017-01-22 09:43:30,0.27,18.23,0.00,19.02,22.47,26.21,14.84,55.22,1013.43,2043.16,741.76,947.08,1049.05,600.06,602.20,32.80,0000 0000 0000 0000 000000
2017-01-22 09:48:31,0.26,18.25,0.00,19.05,22.48,26.22,14.79,55.17,1013.51,2043.05,740.86,946.71,1048.48,599.77,602.01,32.85,0000 0000 0000 0000 000000
2017-01-22 09:53:33,0.30,18.27,0.00,19.05,22.49,26.21,14.80,55.27,1013.68,2043.02,739.96,946.00,1047.70,600.05,602.38,32.90,0000 0000 0000 0000 000000
2017-01-22 09:58:34,0.36,18.28,0.00,19.07,22.49,26.23,14.81,54.94,1013.69,2043.02,739.05,945.27,1046.98,600.24,602.55,32.95,0000 0000 0000 0000 000000
2017-01-22 10:03:35,0.30,18.30,0.00,19.08,22.50,26.22,14.80,55.06,1013.69,2043.01,738.16,944.87,1046.14,599.99,602.29,33.00,0000 0000 0000 0000 000000
2017-01-22 10:08:37,0.35,18.31,0.00,19.07,22.52,26.25,14.76,55.12,1013.67,2043.01,737.40,944.08,1045.55,599.69,601.93,33.05,0000 0000 0000 0000 000000
2017-01-22 10:13:38,0.29,18.33,0.00,19.08,22.52,26.26,14.81,55.08,1013.69,2043.02,736.58,943.74,1044.89,600.19,602.49,33.10,0000 0000 0000 0000 000000
2017-01-22 10:18:40,0.22,18.34,0.00,19.10,22.53,26.30,14.82,55.17,1013.66,2043.00,735.86,943.02,1044.08,600.59,602.88,33.15,0000 0000 0000 0000 000000
2017-01-22 10:23:41,0.43,18.36,0.00,19.12,22.54,26.32,14.80,55.49,1013.62,2043.00,734.88,942.34,1043.41,599.97,602.06,33.20,0000 0000 0000 0000 000000
2017-01-22 10:28:42,0.21,18.38,0.00,19.14,22.54,26.31,14.80,55.27,1013.61,2042.99,734.02,941.92,1042.77,599.95,602.17,33.25,0000 0000 0000 0000 000000
2017-01-22 10:33:44,0.38,18.39,0.00,19.13,22.56,26.31,14.80,55.13,1013.65,2042.99,733.16,941.12,1042.02,599.88,602.05,33.30,0000 0000 0000 0000 000000
2017-01-22 10:38:45,0.33,18.41,0.00,19.13,22.57,26.33,14.74,55.10,1013.27,2042.99,732.34,940.77,1041.30,599.76,601.78,33.35,0000 0000 0000 0000 000000
2017-01-22 10:43:46,0.26,18.42,0.00,19.13,22.57,26.28,14.76,55.08,1013.21,2042.99,731.67,940.04,1040.79,599.83,601.81,33.40,0000 0000 0000 0000 000000
2017-01-22 10:48:47,0.22,18.44,0.00,19.15,22.59,26.29,14.77,54.98,1013.21,2042.99,730.91,939.62,1040.05,599.94,601.81,33.45,0000 0000 0000 0000 000000
2017-01-22 10:53:48,0.31,18.45,0.00,19.15,22.59,26.33,14.81,55.10,1013.21,2042.98,730.06,939.01,1039.39,600.07,601.89,33.50,0000 0000 0000 0000 000000
2017-01-22 10:58:49,0.33,18.47,0.00,19.17,22.59,26.35,14.74,55.08,1013.21,2042.97,729.21,938.45,1038.85,599.84,601.80,33.55,0000 0000 0000 0000 000000
2017-01-22 11:03:50,0.30,18.49,0.00,19.18,22.61,26.35,14.79,55.22,1013.21,2042.95,728.40,937.97,1038.05,599.75,601.56,33.60,0000 0000 0000 0000 000000
2017-01-22 11:08:52,0.32,18.50,0.00,19.19,22.62,26.39,14.79,55.28,1013.17,2042.97,727.69,937.22,1037.40,599.94,601.84,33.65,0000 0000 0000 0000 000000
2017-01-22 11:13:53,0.23,18.51,0.00,19.22,22.62,26.36,14.82,55.34,1013.02,2042.97,726.83,936.84,1036.81,600.27,601.76,33.70,0000 0000 0000 0000 000000
2017-01-22 11:18:55,0.32,18.53,0.00,19.24,22.63,26.41,14.82,55.33,1013.12,2042.94,725.99,936.05,1036.04,600.02,601.53,33.76,0000 0000 0000 0000 000000
2017-01-22 11:23:56,0.34,18.55,0.00,19.26,22.64,26.40,14.77,55.04,1013.15,2042.88,725.12,935.59,1035.21,599.98,601.53,33.81,0000 0000 0000 0000 000000
2017-01-22 11:28:57,0.28,18.56,0.00,19.27,22.65,26.40,14.77,55.32,1012.87,2042.80,724.31,935.00,1034.74,599.75,601.14,33.86,0000 0000 0000 0000 000000
2017-01-22 11:33:58,0.33,18.58,0.00,19.27,22.67,26.41,14.78,55.29,1013.08,2042.75,723.51,934.37,1034.01,600.31,601.93,33.91,0000 0000 0000 0000 000000
2017-01-22 11:39:00,0.34,16.73,0.00,19.30,22.68,26.45,13.17,49.23,1012.83,2043.30,1011.02,1153.61,1287.20,538.01,539.26,0.00,0000 0000 0000 0000 000002
2017-01-22 11:44:01,0.70,0.00,0.00,19.32,22.71,26.55,14.73,50.03,1012.74,2049.31,3585.09,3112.66,3552.88,599.63,600.95,0.02,0000 0000 0000 0000 000000
2017-01-22 11:49:02,0.69,0.01,0.00,19.36,22.70,26.52,14.62,49.52,1013.01,2049.05,3573.09,3103.21,3542.36,599.66,600.98,0.07,0000 0000 0000 0000 000000
2017-01-22 11:54:03,0.64,0.03,0.00,19.35,22.72,26.47,14.64,49.14,1013.20,2049.02,3565.52,3098.55,3536.12,599.95,601.33,0.12,0000 0000 0000 0000 000000
2017-01-22 11:59:05,0.58,0.05,0.43,19.37,22.72,26.50,14.66,49.14,1013.20,2049.00,3557.40,3092.20,3529.04,600.10,601.61,0.17,0000 0000 0000 0000 000000
2017-01-22 12:04:06,0.48,0.07,1.00,19.37,22.72,26.50,14.72,49.10,1013.20,2049.00,3549.72,3086.29,3522.39,600.11,601.54,0.22,0000 0000 0000 0000 000000
2017-01-22 12:09:07,0.43,0.09,1.00,19.38,22.74,26.51,14.73,49.18,1013.09,2049.00,3541.87,3079.89,3515.36,600.16,601.39,0.27,0000 0000 0000 0000 000000
2017-01-22 12:14:08,0.50,0.11,1.00,19.39,22.74,26.47,14.61,49.53,1012.66,2049.00,3532.22,3072.28,3506.33,599.73,600.75,0.32,0000 0000 0000 0000 000000
2017-01-22 12:19:10,0.62,0.14,1.00,19.38,22.75,26.49,14.73,49.84,1012.33,2049.01,3519.64,3062.60,3494.21,600.18,601.04,0.37,0000 0000 0000 0000 000000
2017-01-22 12:24:11,0.41,0.17,1.00,19.36,22.77,26.50,14.59,49.78,1012.26,2049.00,3510.33,3054.85,3484.77,599.62,600.48,0.42,0000 0000 0000 0000 000000
2017-01-22 12:29:12,0.37,0.18,0.57,19.32,22.77,26.50,14.69,49.48,1012.63,2049.00,3503.32,3049.89,3478.26,600.08,601.19,0.47,0000 0000 0000 0000 000000
2017-01-22 12:34:13,0.29,0.20,0.00,19.31,22.78,26.51,14.68,49.17,1012.68,2049.00,3496.71,3044.81,3472.21,599.95,601.21,0.52,0000 0000 0000 0000 000000
2017-01-22 12:39:14,0.42,0.22,0.00,19.31,22.79,26.50,14.65,49.64,1012.24,2048.99,3489.16,3038.68,3465.43,599.51,600.53,0.57,0000 0000 0000 0000 000000
2017-01-22 12:44:16,0.56,0.25,0.00,19.29,22.79,26.51,14.68,49.80,1012.22,2048.99,3478.91,3029.74,3455.70,599.84,600.89,0.62,0000 0000 0000 0000 000000
2017-01-22 12:49:17,0.46,0.27,0.00,19.25,22.79,26.50,14.65,49.77,1012.19,2048.99,3469.41,3021.65,3446.45,599.81,600.98,0.67,0000 0000 0000 0000 000000
2017-01-22 12:54:18,0.43,0.29,0.00,19.24,22.79,26.49,14.71,49.87,1012.20,2048.99,3461.55,3014.94,3439.07,599.87,600.95,0.72,0000 0000 0000 0000 000000
2017-01-22 12:59:20,0.41,0.31,0.00,19.22,22.79,26.49,14.73,49.83,1012.20,2048.99,3453.66,3008.22,3431.29,600.12,601.23,0.77,0000 0000 0000 0000 000000